Location: Newark
(43.6486°N, 79.3853°W)
Time: 11:54:55
(UTC+00:00)

ISS - Pass Details

Date: 01 April 2020
Orbit: 417 x 419 km, 51.6° (Epoch: 03 June)

Event Time Altitude Azimuth Distance (km) Brightness Sun altitude
Rises 01:52:38 0° 302° (WNW) 2,366 1.6 -22.7°
Reaches altitude 10° 01:54:45 10° 303° (WNW) 1,499 0.2 -23.0°
Enters shadow 01:57:11 45° 310° (NW) 581 -2.7 -23.4°
